This demonstration page uses our WeatherBlox Daily Observations layout. Learn more.

Left ArrowRight Arrow

39.01783, -85.05884

Hourly Observations for July 5, 2021

Temp ( °F °C ) Dew Point ( °F °C ) Humidity (%) Winds ( mph kmh ) Pressure ( in mb ) Visibility ( mi km ) Precip ( " mm )
12:52 am 00:52 Mostly Clear 74 23.3 67 19.4 79 79 WSW 5 7 29.99 1016 9 14 0.00 0.00
1:52 am 01:52 Clear 73 22.8 67 19.4 81 81 Calm 29.98 1015 9 14 0.00 0.00
2:52 am 02:52 Clear 73 22.8 67 19.4 81 81 Calm 29.98 1015 10 16 0.00 0.00
3:52 am 03:52 Mostly Clear 71 21.7 67 19.4 87 87 WNW 3 6 29.98 1015 9 14 0.00 0.00
4:52 am 04:52 Mostly Clear 70 21.1 67 19.4 90 90 Calm 29.99 1016 8 13 0.00 0.00
5:52 am 05:52 Clear 70 21.1 67 19.4 90 90 Calm 30.00 1016 8 13 0.00 0.00
6:52 am 06:52 Sunny with Mist and Fog 69 20.6 66 18.9 90 90 Calm 30.02 1017 4 6 0.00 0.00
7:52 am 07:52 Partly Cloudy with Light Rain 73 22.8 69 20.6 87 87 Calm 30.03 1017 6 10 0.00 0.00
8:52 am 08:52 Sunny 78 25.6 69 20.6 74 74 NNW 5 7 30.04 1017 9 14 0.00 0.00
9:52 am 09:52 Sunny 81 27.2 69 20.6 67 67 N 7 11 30.05 1018 10 16 0.00 0.00
10:52 am 10:52 Mostly Sunny 83 28.3 69 20.6 63 63 VRB 3 6 30.06 1018 10 16 0.00 0.00
11:52 am 11:52 Partly Cloudy 84 28.9 69 20.6 61 61 WSW 8 13 30.06 1018 10 16 0.00 0.00
12:52 pm 12:52 Partly Cloudy 85 29.4 68 20 57 57 SW 6 9 30.06 1018 10 16 0.00 0.00
1:52 pm 13:52 Partly Cloudy 87 30.6 69 20.6 55 55 undefined N/A 30.06 1018 10 16 0.00 0.00
2:52 pm 14:52 Partly Cloudy 88 31.1 69 20.6 54 54 VRB 5 7 30.05 1018 10 16 0.00 0.00
3:52 pm 15:52 Mostly Sunny 89 31.7 68 20 50 50 VRB 7 11 30.04 1017 10 16 0.00 0.00
4:52 pm 16:52 Mostly Sunny 89 31.7 67 19.4 48 48 VRB 6 9 30.03 1017 10 16 0.00 0.00
5:52 pm 17:52 Mostly Sunny 88 31.1 67 19.4 50 50 WSW 8 13 30.02 1017 10 16 0.00 0.00
6:52 pm 18:52 Mostly Sunny 87 30.6 68 20 53 53 SW 6 9 30.02 1017 10 16 0.00 0.00
7:52 pm 19:52 Mostly Sunny 86 30 69 20.6 57 57 WSW 3 6 30.01 1016 10 16 0.00 0.00
8:52 pm 20:52 Sunny 83 28.3 69 20.6 63 63 WSW 3 6 30.02 1017 10 16 0.00 0.00
9:52 pm 21:52 Clear 81 27.2 69 20.6 67 67 Calm 30.03 1017 10 16 0.00 0.00
10:52 pm 22:52 Clear 78 25.6 69 20.6 74 74 WSW 3 6 30.04 1017 10 16 0.00 0.00
11:52 pm 23:52 Clear 73 22.8 69 20.6 87 87 S 3 6 30.04 1017 9 14 0.00 0.00

Powered by AerisWeather